Location: Newark
(45.8667°N, 9.7333°E)
Time: 20:39:39
(UTC+00:00)

Vanguard 3 - Pass Details

Date: 01 February 2020
Orbit: 508 x 3263 km, 33.3° (Epoch: 22 February)

Event Time Altitude Azimuth Distance (km) Brightness Sun altitude
Rises 15:56:47 0° 245° (WSW) 6,405 14.7 3.7°
Reaches altitude 10° 16:00:46 10° 241° (WSW) 5,654 14.2 3.1°
Maximum altitude 16:18:28 54° 172° (S) 3,717 10.7 0.3°
Drops below altitude 10° 16:36:17 10° 102° (ESE) 5,688 11.0 -2.5°
Sets 16:40:17 0° 98° (E) 6,445 11.2 -3.1°
